[Iaude] MPEC N58: 2019 GU184 [a=43.64,e=0.07,i=3.2,H=8.65]
    mpec at cfa.harvard.edu 
    mpec at cfa.harvard.edu
       
    Fri Jul  5 11:20:26 EDT 2024
    
    
  
M.P.E.C. 2024-N58                                  Issued 2024 July 5, 15:18 UT
     The Minor Planet Electronic Circulars contain information on unusual
         minor planets, routine data on comets and natural satellites,
         and occasional editorial announcements.  They are published
    on behalf of Division F of the International Astronomical Union by the
          Minor Planet Center, Smithsonian Astrophysical Observatory,
                          Cambridge, MA 02138, U.S.A.
			  
             Prepared using the Tamkin Foundation Computer Network
                              MPC at CFA.HARVARD.EDU
            URL https://www.minorplanetcenter.net/    ISSN 1523-6714
                                   2019 GU184                                   
Additional Observations:
     K19GI4U 1C2018 02 11.65440512 04 42.04 +02 48 33.5                WEN058T09
     K19GI4U 1C2018 04 24.36550511 59 42.93 +03 21 29.2                WEN058T09
     K19GI4U 1C2018 04 24.40948611 59 42.76 +03 21 30.2                WEN058T09
     K19GI4U 1C2019 02 28.55738012 08 54.43 +02 23 33.6                WEN058T09
     K19GI4U 1C2019 02 28.60790212 08 54.23 +02 23 34.7                WEN058T09
     K19GI4U 1C2019 03 03.61971912 08 41.73 +02 25 02.6                WEN058T09
     K19GI4U 1C2019 03 03.62240012 08 41.73 +02 25 02.7                WEN058T09
Observer details:
T09 Subaru Telescope, Maunakea.  Observer .  Measurer S. Deen.  8.3-m Subaru
    Telescope + CCD.
Orbital elements:
2019 GU184                                                                      
Epoch 2024 Mar. 31.0 TT = JDT 2460400.5                 Alexandersen            
M  47.00942              (2000.0)            P               Q                  
n   0.00341932     Peri.   25.96792     -0.69832587     -0.71386083             
a  43.6358057      Node   108.37565     +0.64672739     -0.66062478             
e   0.0702574      Incl.    3.16402     +0.30673222     -0.23233082             
P 288              H    8.65          G   0.15           U   6                  
Residuals in seconds of arc
180211 T09  0.0   0.0     190228 T09  0.2-  0.1+    190404 T09  0.1+  0.1-
180424 T09  0.1+  0.0     190228 T09  0.0   0.3-    190404 T09  0.1+  0.1-
180424 T09  0.0   0.1+    190303 T09  0.1-  0.0     190404 T09  0.3-  0.2+
190205 T09  0.1-  0.1-    190303 T09  0.1+  0.0     190405 T09  0.1-  0.1+
190205 T09  0.1+  0.1-    190404 T09  0.0   0.1+    190405 T09  0.0   0.1-
190205 T09  0.1-  0.2+    190404 T09  0.2+  0.1+    190405 T09  0.1-  0.2+
190205 T09  0.1+  0.0     190404 T09  0.1+  0.3-    190405 T09  0.1+  0.0
Ephemeris:
2019 GU184               a,e,i = 43.64, 0.07, 3                  q = 40.5701
Date    TT    R. A. (2000) Decl.     Delta      r    Elong.  Phase     V
2024 06 05    12 28 58.8 +00 17 17  41.2881 41.6789   112.0     1.3    25.0
...
2024 06 20    12 28 49.3 +00 17 08  41.5335 41.6811    97.7     1.4    25.0
...
2024 06 28    12 28 52.1 +00 16 12  41.6689 41.6823    90.1     1.4    25.0
...
2024 07 04    12 28 57.8 +00 15 07  41.7706 41.6832    84.4     1.4    25.0
2024 07 05    12 28 59.1 +00 14 54  41.7875 41.6833    83.4     1.4    25.0
2024 07 06    12 29 00.4 +00 14 41  41.8044 41.6835    82.5     1.4    25.0
...
2024 07 12    12 29 10.2 +00 13 09  41.9045 41.6844    76.8     1.4    25.0
...
2024 07 20    12 29 27.9 +00 10 39  42.0342 41.6856    69.3     1.3    25.1
...
2024 08 04    12 30 14.5 +00 04 37  42.2587 41.6878    55.2     1.1    25.0
M. P. C. Staff               (C) Copyright 2024 MPC           M.P.E.C. 2024-N58
    
    
More information about the Iaude
mailing list